Weather History for Frenchville, ME

Change the Weather History Date:

Tuesday, March 25, 2014

  Actual Average Record
Temperature  
Mean Temperature -12 °C -3 °C  
Max Temperature -4 °C 2 °C 6 °C (2004)
Min Temperature -21 °C -7 °C -20 °C (2014)
Degree Days  
Heating Degree Days 55    
Month to date heating degree days 1333  
Since 1 July heating degree days 8267  
Cooling Degree Days 0    
Month to date cooling degree days 0  
Year to date cooling degree days 0  
Moisture  
Dew Point -17 °C    
Average Humidity 69    
Maximum Humidity 87    
Minimum Humidity 40    
Precipitation  
Precipitation 0.00 mm 1.52 mm 0.69 mm (2008)
Month to date precipitation 0.74 1.06  
Year to date precipitation 3.66 3.63  
Sea Level Pressure  
Sea Level Pressure 1016 hPa    
Wind  
Wind Speed 12 km/h (SSW)    
Max Wind Speed 32 km/h    
Max Gust Speed 45 km/h    
Visibility 16 kilometers    
Events      
T = Trace of Precipitation, MM = Missing Value Source: NWS Daily Summary

Daily Weather History Graph

Daily Weather History Graph

Search for Another Location

Airport:

Trip Planner

Search our weather history database for the weather conditions in past years. The results will help you decide how hot, cold, wet, or windy it might be!

Date:

Astronomy

Mar. 25, 2014 Rise Set
Actual Time 6:26 AM EDT 6:52 PM EDT
Civil Twilight 5:55 AM EDT 7:23 PM EDT
Nautical Twilight 5:19 AM EDT 8:00 PM EDT
Astronomical Twilight 4:41 AM EDT 8:37 PM EDT
Moon 3:05 AM EDT (3/25) 1:00 PM EDT (3/25)
Length of Visible Light 13h 28m
Length of Day
12h 26m
Waning Crescent, 32% of the Moon is Illuminated
Mar 25
Waning Crescent
Mar 30
New
Apr 7
First Quarter
Apr 15
Full
Apr 22
Last Quarter

Hourly Weather History & Observations

Time (EDT) Temp. Windchill Dew Point Humidity Pressure Visibility Wind Dir Wind Speed Gust Speed Precip Events Conditions
12:53 AM -17.2 °C -25.5 °C -20.6 °C 75% 1015.3 hPa 16.1 km West 14.8 km/h / 4.1 m/s - N/A   Clear
1:53 AM -18.9 °C -27.6 °C -20.6 °C 87% 1015.4 hPa 16.1 km WSW 14.8 km/h / 4.1 m/s - N/A   Clear
2:53 AM -18.9 °C -26.3 °C -21.1 °C 83% 1015.2 hPa 16.1 km WSW 11.1 km/h / 3.1 m/s - N/A   Clear
3:53 AM -18.3 °C -24.8 °C -20.6 °C 83% 1015.5 hPa 16.1 km SSW 9.3 km/h / 2.6 m/s - N/A   Clear
4:53 AM -17.8 °C -22.2 °C -20.0 °C 83% 1015.3 hPa 16.1 km WSW 5.6 km/h / 1.5 m/s - N/A   Clear
5:53 AM -18.9 °C -25.5 °C -20.6 °C 87% 1015.8 hPa 16.1 km SSW 9.3 km/h / 2.6 m/s - N/A   Clear
6:53 AM -18.3 °C -25.6 °C -20.6 °C 83% 1016.2 hPa 16.1 km SSW 11.1 km/h / 3.1 m/s - N/A   Clear
7:53 AM -19.4 °C -26.9 °C -21.1 °C 87% 1016.6 hPa 16.1 km SSE 11.1 km/h / 3.1 m/s - N/A   Clear
8:53 AM -17.2 °C -24.3 °C -20.0 °C 79% 1016.4 hPa 16.1 km South 11.1 km/h / 3.1 m/s - N/A   Clear
9:53 AM -15.0 °C -20.9 °C -18.9 °C 73% 1016.7 hPa 16.1 km SE 9.3 km/h / 2.6 m/s - N/A   Clear
10:53 AM -11.7 °C -17.7 °C -17.2 °C 64% 1016.2 hPa 16.1 km SSE 11.1 km/h / 3.1 m/s - N/A   Clear
11:53 AM -8.3 °C -13.6 °C -15.6 °C 56% 1015.4 hPa 16.1 km SE 11.1 km/h / 3.1 m/s - N/A   Clear
12:53 PM -6.7 °C -13.0 °C -16.1 °C 48% 1014.7 hPa 16.1 km SSW 16.7 km/h / 4.6 m/s 29.6 km/h / 8.2 m/s N/A   Overcast
1:53 PM -5.6 °C -12.7 °C -17.2 °C 40% 1014.4 hPa 16.1 km South 22.2 km/h / 6.2 m/s 37.0 km/h / 10.3 m/s N/A   Overcast
2:53 PM -5.6 °C -12.7 °C -16.7 °C 42% 1014.4 hPa 16.1 km South 22.2 km/h / 6.2 m/s 42.6 km/h / 11.8 m/s N/A   Overcast
3:53 PM -5.0 °C -11.9 °C -16.1 °C 42% 1014.5 hPa 16.1 km South 22.2 km/h / 6.2 m/s 33.3 km/h / 9.3 m/s N/A   Overcast
4:53 PM -5.6 °C -11.6 °C -13.3 °C 55% 1015.2 hPa 16.1 km SW 16.7 km/h / 4.6 m/s - N/A   Mostly Cloudy
5:53 PM -6.1 °C -10.9 °C -12.8 °C 60% 1015.6 hPa 16.1 km WSW 11.1 km/h / 3.1 m/s - N/A   Partly Cloudy
6:53 PM -7.2 °C -11.6 °C -13.3 °C 62% 1016.1 hPa 16.1 km WSW 9.3 km/h / 2.6 m/s - N/A   Scattered Clouds
7:53 PM -8.3 °C -11.3 °C -12.8 °C 71% 1017.0 hPa 16.1 km SSE 5.6 km/h / 1.5 m/s - N/A   Partly Cloudy
8:53 PM -8.3 °C -13.6 °C -12.8 °C 71% 1017.4 hPa 16.1 km SW 11.1 km/h / 3.1 m/s - N/A   Clear
9:53 PM -8.9 °C -13.7 °C -12.8 °C 74% 1017.7 hPa 16.1 km SSW 9.3 km/h / 2.6 m/s - N/A   Clear
10:53 PM -8.9 °C -12.9 °C -12.2 °C 77% 1017.9 hPa 16.1 km SSW 7.4 km/h / 2.1 m/s - N/A   Clear
11:53 PM -10.0 °C -14.2 °C -12.2 °C 84% 1017.6 hPa 16.1 km SE 7.4 km/h / 2.1 m/s - N/A   Clear